User: anonymous   Login
Location: Unspecified
(0.0000°N, 0.0000°E)
Time: 04:43:53
(UTC+02:00)
Language:

Gbstr 26 Del rocket - Orbit

View from above orbital plane
View from above orbital plane
View from above satellite
View from above satellite

Ground track
Ground track

The orbit data is extracted from the following two-line orbital elements,

1 25876U 99041E   15142.16099998  .00001596  00000-0  31491-3 0  9997
2 25876 051.7661 062.1221 0535832 342.8417 015.4992 14.03263425808281
Epoch (UTC): 22 May 2015 03:51:50
Eccentricity: 0.0535832
inclination: 51.7661°
perigee height: 493 km
apogee height: 1271 km
right ascension of ascending node: 62.1221°
argument of perigee: 342.8417°
revolutions per day: 14.03263425
mean anomaly at epoch: 15.4992°
orbit number at epoch: 80828

The dashed part of the orbit path shows where the satellite is in the earth's shadow,  

DLR